Location: Pinehill
(32.1047°N, 94.6054°W)
Time: 02:49:19
(UTC+00:00)

X-37B - Pass Details

Date: 17 August 2022
Orbit: 330 x 340 km, 45.0° (Epoch: 02 September)

Event Time Altitude Azimuth Distance (km) Brightness Sun altitude
Exits shadow 09:40:57 22° 70° (ENE) 808 2.9 -24.3°
Drops below altitude 10° 09:42:24 10° 93° (E) 1,277 3.9 -24.0°
Sets 09:44:33 0° 104° (ESE) 2,113 4.9 -23.7°
